Flag for Brazil Weather past 2 weeks in Santarém, Pará, Brazil

Now
86 °F

Scattered clouds.


Feels Like: 99 °F
Forecast: 76 / 86 °F
Wind: 9 mph from East

Location: Santarem-Aeroporto

Current Time: Apr 21, 2015 at 12:48:02 PM

Latest Report: Apr 21, 2015 at 12:00 PM


Visibility: N/A

Pressure: 29.92 "Hg

Humidity: 79%

Dew point: 79 °F

Location of SantarémLocation

Historic Weather in Santarém — Graph

°F

Santarém temperature yesterday

Maximum temperature yesterday: 86 °F (at 12:00 PM)
Minimum temperature yesterday: 75 °F (at 12:00 AM)
Average temperature yesterday: 81 °F

Past Weeks' High & Low Weather Summary

 TemperatureHumidityPressure
High88 °F (Apr 9, 3:00 PM)100% (Apr 6, 10:00 PM)29.98 "Hg (Apr 6, 10:00 PM)
Low39 °F (Apr 12, 11:00 PM)66% (Apr 7, 4:00 PM)29.74 "Hg (Apr 6, 5:00 PM)
Average80 °F86%29.87 "Hg
* Reported Apr 6 11:00 AM — Apr 21 11:00 AM, Santarém, Weather by CustomWeather, © 2015

Note: Actual official high and low records may vary slightly from our data, if they occured in-between our weather recording intervals... More about our weather records

Advertising

Santarém weather history for previous 24 hours

 ConditionsComfort  
Time TempWeatherWind HumidityBarometerVisibility
11:00 AM
Tue, Apr 21
84 °FBroken clouds.9 mph79%29.92 "HgN/A
10:00 AM81 °FBroken clouds.6 mph89%29.92 "HgN/A
9:00 AM82 °FScattered clouds.12 mph79%29.89 "HgN/A
8:00 AM81 °FPartly sunny.8 mph79%29.86 "HgN/A
7:00 AM79 °FPassing clouds.8 mph89%29.83 "HgN/A
6:00 AM79 °FPassing clouds.6 mph84%29.80 "HgN/A
5:00 AM79 °FPassing clouds.7 mph84%29.80 "HgN/A
4:00 AM79 °FPassing clouds.6 mph89%29.80 "HgN/A
3:00 AM79 °FPassing clouds.7 mph89%29.80 "HgN/A
2:00 AM75 °FPassing clouds.No wind94%29.83 "HgN/A
1:00 AM75 °FPassing clouds.No wind94%29.86 "HgN/A
12:00 AM77 °FClear.5 mph94%29.89 "Hg10 mi
11:00 PM
Mon, Apr 20
77 °FClear.2 mph94%29.89 "Hg10 mi
10:00 PM79 °FClear.5 mph89%29.89 "Hg10 mi
9:00 PM79 °FPassing clouds.5 mph89%29.83 "HgN/A
8:00 PM79 °FPassing clouds.5 mph89%29.83 "HgN/A
7:00 PM82 °FPassing clouds.9 mph74%29.80 "HgN/A
6:00 PM84 °FSunny.9 mph70%29.77 "Hg10 mi
5:00 PM86 °FPassing clouds.13 mph70%29.77 "HgN/A
4:00 PM86 °FPassing clouds.8 mph70%29.77 "HgN/A
3:00 PM86 °FPassing clouds.7 mph75%29.80 "HgN/A
2:00 PM86 °FScattered clouds.10 mph70%29.83 "HgN/A
1:00 PM84 °FBroken clouds.8 mph79%29.89 "HgN/A
12:00 PM86 °FScattered clouds.13 mph70%29.89 "HgN/A
Weather by CustomWeather, © 2015

See weather overviewHow to use our weather pages